Location: Nakusp
(50.2330°N, 117.8000°W)
Time: 23:18:03
(UTC-07:00)

Cosmos 1939 Rocket - Visible Passes

Search period start: 22 March 2017 00:00
Search period end: 01 April 2017 00:00
Orbit: 535 x 585 km, 97.5° (Epoch: 21 March)

Date Brightness Start Highest point End Pass type
(mag) Time Alt. Az. Time Alt. Az. Time Alt. Az.
22 Mar 3.2 20:26:40 16° SE 20:29:41 47° ENE 20:33:42 10° N visible
22 Mar 5.3 22:02:35 13° SW 22:04:52 20° W 22:07:58 10° NW visible
23 Mar 3.3 20:25:22 15° SE 20:28:31 46° ENE 20:32:31 10° N visible
23 Mar 5.3 22:01:16 13° SW 22:03:42 20° W 22:06:50 10° NW visible
24 Mar 3.3 20:24:04 14° SE 20:27:21 45° ENE 20:31:21 10° N visible
24 Mar 5.2 21:59:58 13° SW 22:02:31 21° W 22:05:42 10° NW visible
25 Mar 3.3 20:22:45 13° SE 20:26:11 44° ENE 20:30:10 10° N visible
25 Mar 5.2 21:58:40 12° SW 22:01:20 21° W 22:04:34 10° NW visible
26 Mar 3.4 20:21:27 12° SE 20:25:01 43° ENE 20:28:59 10° N visible
26 Mar 5.2 21:57:22 12° SW 22:00:09 22° W 22:03:25 10° NW visible
27 Mar 3.4 20:20:09 11° SE 20:23:51 42° ENE 20:27:48 10° N visible
27 Mar 5.1 21:56:04 12° SW 21:58:58 22° W 22:02:17 10° NW visible
28 Mar 3.4 20:18:51 10° SE 20:22:41 41° ENE 20:26:37 10° N visible
28 Mar 5.1 21:54:46 11° SW 21:57:47 23° W 22:01:08 10° NW visible
29 Mar 3.5 20:17:38 10° SE 20:21:32 40° ENE 20:25:26 10° N visible
29 Mar 5.1 21:53:28 11° SW 21:56:36 24° W 22:00:00 10° NW visible
30 Mar 3.5 20:16:29 10° SE 20:20:21 39° ENE 20:24:15 10° N visible
30 Mar 5.0 21:52:11 11° SSW 21:55:25 24° W 21:58:50 10° NW visible
31 Mar 3.5 20:15:20 10° SE 20:19:11 38° ENE 20:23:03 10° N visible
31 Mar 5.0 21:50:53 10° SSW 21:54:14 25° W 21:57:42 10° NW visible
